Davenport, IA

6:20 PM CDT on April 21, 2018 (GMT -0500)
Davenport Municipal

Weather History for KDVN - October, 2011

Change the Weather History Date:

Monday, October 10, 2011

  Actual Average Record
Temperature  
Mean Temperature 62 °F 54 °F  
Max Temperature 78 °F 65 °F 86 °F (1962)
Min Temperature 45 °F 42 °F 29 °F (1964)
Degree Days  
Heating Degree Days 3 12  
Month to date heating degree days 43 105  
Since 1 July heating degree days 237 240  
Cooling Degree Days 0 1  
Month to date cooling degree days 16 10  
Year to date cooling degree days 1019 784  
Growing Degree Days 13 (Base 50)    
Moisture  
Dew Point 46 °F    
Average Humidity 55    
Maximum Humidity 77    
Minimum Humidity 32    
Precipitation  
Precipitation 0.00 in 0.10 in 3.91 in (1954)
Month to date precipitation 0.00 0.91  
Year to date precipitation 26.53 29.79  
Snow  
Snow 0.00 in - - ()
Month to date snowfall 0.0  
Since 1 July snowfall 0.0  
Since 1 September snowfall 0.0  
Snow Depth 0.00 in    
Sea Level Pressure  
Sea Level Pressure 30.10 in    
Wind  
Wind Speed 7 mph (SE)    
Max Wind Speed 12 mph    
Max Gust Speed 14 mph    
Visibility 10 miles    
Events      
T = Trace of Precipitation, MM = Missing Value Source: NWS Daily Summary

Daily Weather History Graph

Daily Weather History Graph

Search for Another Location

Airport or City:

Astronomy

Oct. 10, 2011 Rise Set
Actual Time 7:08 AM CDT 6:29 PM CDT
Civil Twilight 6:40 AM CDT 6:57 PM CDT
Nautical Twilight 6:08 AM CDT 7:29 PM CDT
Astronomical Twilight 5:36 AM CDT 8:01 PM CDT
Moon 5:33 PM CDT (10/10) 5:49 AM CDT (10/10)
Length of Visible Light 12h 16m
Length of Day
11h 20m
Waxing Gibbous, 98% of the Moon is Illuminated
Oct 10
Waxing Gibbous
Oct 11
Full
Oct 19
Last Quarter
Oct 26
New
Nov 2
First Quarter

Hourly Weather History & Observations

Time (CDT) Temp. Dew Point Humidity Pressure Visibility Wind Dir Wind Speed Gust Speed Precip Events Conditions
12:52 AM 53.1 °F 39.0 °F 59% 30.17 in 10.0 mi ESE 4.6 mph - N/A   Clear
1:52 AM 55.0 °F 39.9 °F 57% 30.18 in 10.0 mi East 5.8 mph - N/A   Clear
2:52 AM 48.9 °F 39.9 °F 71% 30.17 in 10.0 mi ESE 5.8 mph - N/A   Clear
3:52 AM 48.9 °F 39.9 °F 71% 30.16 in 10.0 mi SE 8.1 mph - N/A   Clear
4:52 AM 50.0 °F 39.9 °F 68% 30.15 in 10.0 mi East 3.5 mph - N/A   Clear
5:52 AM 48.0 °F 41.0 °F 77% 30.16 in 10.0 mi ESE 6.9 mph - N/A   Clear
6:52 AM 48.0 °F 39.9 °F 74% 30.16 in 10.0 mi East 3.5 mph - N/A   Clear
7:52 AM 50.0 °F 43.0 °F 77% 30.17 in 8.0 mi Calm Calm - N/A   Clear
8:52 AM 57.9 °F 46.0 °F 65% 30.16 in 9.0 mi SE 6.9 mph - N/A   Clear
9:52 AM 64.0 °F 46.9 °F 54% 30.17 in 10.0 mi SE 5.8 mph - N/A   Clear
10:52 AM 70.0 °F 48.9 °F 47% 30.14 in 10.0 mi SE 8.1 mph - N/A   Clear
11:52 AM 73.0 °F 48.9 °F 42% 30.13 in 10.0 mi SSE 6.9 mph - N/A   Clear
12:52 PM 75.9 °F 48.0 °F 37% 30.10 in 10.0 mi SSE 8.1 mph - N/A   Clear
1:52 PM 75.9 °F 46.9 °F 36% 30.07 in 10.0 mi SSW 9.2 mph 16.1 mph N/A   Clear
2:52 PM 78.1 °F 46.0 °F 32% 30.05 in 10.0 mi SSE 8.1 mph - N/A   Clear
3:52 PM 75.9 °F 46.0 °F 35% 30.04 in 10.0 mi SE 6.9 mph - N/A   Clear
4:52 PM 75.0 °F 46.9 °F 37% 30.02 in 10.0 mi SE 8.1 mph - N/A   Clear
5:52 PM 72.0 °F 48.9 °F 44% 30.02 in 10.0 mi SE 8.1 mph - N/A   Clear
6:52 PM 71.1 °F 48.9 °F 45% 30.02 in 10.0 mi SSE 8.1 mph - N/A   Partly Cloudy
7:52 PM 66.9 °F 50.0 °F 54% 30.02 in 10.0 mi SE 9.2 mph - N/A   Clear
8:52 PM 64.9 °F 50.0 °F 58% 30.02 in 10.0 mi SE 8.1 mph - N/A   Clear
9:52 PM 63.0 °F 50.0 °F 63% 30.01 in 10.0 mi SE 5.8 mph - N/A   Partly Cloudy
10:52 PM 62.1 °F 50.0 °F 65% 30.01 in 10.0 mi SSE 8.1 mph - N/A   Clear
11:52 PM 62.1 °F 51.1 °F 67% 30.01 in 10.0 mi SSE 5.8 mph - N/A   Clear